• In Uzbekistan
  • List of Countries
  • For 7 days
  • Water Temperature
  • Satellite Maps
  • Weather Map
  • Weather Widgets
  • user-avatar
    Login

    Hourly Weather Cordeiropolis

    Today, 21 September, Friday

    Time Temperature Precipitation Wind Pressure Humidity
    00:00 +21°C° 0.9 mm 1 mps 705 mmHg 87%
    01:00 +21°C° 0.1 mm 1 mps 705 mmHg 88%
    02:00 +21°C° 0.1 mm 1 mps 705 mmHg 89%
    03:00 +21°C° 0.1 mm 1 mps 705 mmHg 90%
    04:00 +20°C° 0 mm 1 mps 705 mmHg 91%
    05:00 +20°C° 0 mm 1 mps 705 mmHg 91%
    06:00 +20°C° 0 mm 1 mps 705 mmHg 92%
    07:00 +22°C° 0 mm 1 mps 705 mmHg 84%
    08:00 +24°C° 0 mm 1 mps 706 mmHg 76%
    09:00 +25°C° 0 mm 1 mps 707 mmHg 69%
    10:00 +27°C° 0 mm 2 mps 707 mmHg 62%
    11:00 +29°C° 0 mm 2 mps 707 mmHg 55%
    12:00 +30°C° 0 mm 2 mps 707 mmHg 48%
    13:00 +30°C° 0 mm 2 mps 706 mmHg 46%
    14:00 +31°C° 0 mm 2 mps 705 mmHg 44%
    15:00 +31°C° 0 mm 2 mps 705 mmHg 42%
    16:00 +30°C° 0 mm 2 mps 705 mmHg 46%
    17:00 +29°C° 0 mm 1 mps 705 mmHg 49%
    18:00 +27°C° 0 mm 1 mps 705 mmHg 53%
    19:00 +27°C° 0 mm 1 mps 705 mmHg 56%
    20:00 +26°C° 0 mm 1 mps 705 mmHg 58%
    21:00 +25°C° 0 mm 2 mps 706 mmHg 60%
    22:00 +24°C° 0 mm 2 mps 706 mmHg 64%
    23:00 +23°C° 0 mm 2 mps 706 mmHg 68%

    Tomorrow, 22 September, Saturday

    Time Temperature Precipitation Wind Pressure Humidity
    00:00 +23°C° 0 mm 2 mps 706 mmHg 72%
    01:00 +21°C° 0 mm 2 mps 705 mmHg 75%
    02:00 +22°C° 0 mm 1 mps 705 mmHg 78%
    03:00 +21°C° 0 mm 1 mps 704 mmHg 80%
    04:00 +21°C° 0 mm 1 mps 704 mmHg 81%
    05:00 +21°C° 0 mm 1 mps 705 mmHg 82%
    06:00 +20°C° 0 mm 1 mps 705 mmHg 83%
    07:00 +23°C° 0 mm 1 mps 705 mmHg 75%
    08:00 +25°C° 0 mm 1 mps 706 mmHg 66%
    09:00 +27°C° 0 mm 1 mps 707 mmHg 58%
    10:00 +29°C° 0 mm 1 mps 707 mmHg 51%
    11:00 +31°C° 0 mm 1 mps 706 mmHg 45%
    12:00 +33°C° 0 mm 1 mps 706 mmHg 38%
    13:00 +33°C° 0 mm 1 mps 706 mmHg 36%
    14:00 +33°C° 0 mm 1 mps 705 mmHg 33%
    15:00 +34°C° 0 mm 1 mps 704 mmHg 31%
    16:00 +32°C° 0 mm 1 mps 704 mmHg 35%
    17:00 +31°C° 0 mm 1 mps 704 mmHg 38%
    18:00 +29°C° 0 mm 1 mps 704 mmHg 42%
    19:00 +28°C° 0 mm 1 mps 704 mmHg 44%
    20:00 +27°C° 0 mm 1 mps 704 mmHg 46%
    21:00 +26°C° 0 mm 2 mps 705 mmHg 48%
    22:00 +25°C° 0 mm 2 mps 705 mmHg 52%
    23:00 +25°C° 0 mm 2 mps 705 mmHg 56%

    Day after tomorrow, 23 September, Sunday

    Time Temperature Precipitation Wind Pressure Humidity
    00:00 +24°C° 0 mm 2 mps 705 mmHg 60%
    01:00 +23°C° 0 mm 2 mps 705 mmHg 61%
    02:00 +23°C° 0 mm 2 mps 704 mmHg 62%
    03:00 +23°C° 0 mm 2 mps 704 mmHg 63%
    04:00 +21°C° 0 mm 2 mps 704 mmHg 65%
    05:00 +21°C° 0 mm 2 mps 704 mmHg 66%
    06:00 +22°C° 0 mm 1 mps 704 mmHg 68%
    07:00 +24°C° 0 mm 2 mps 705 mmHg 63%
    08:00 +26°C° 0 mm 2 mps 706 mmHg 59%
    09:00 +28°C° 0 mm 3 mps 707 mmHg 54%
    10:00 +30°C° 0 mm 2 mps 707 mmHg 48%
    11:00 +32°C° 0 mm 2 mps 706 mmHg 42%
    12:00 +34°C° 0 mm 1 mps 706 mmHg 35%
    13:00 +34°C° 0 mm 1 mps 706 mmHg 33%
    14:00 +35°C° 0 mm 1 mps 705 mmHg 31%
    15:00 +33°C° 0 mm 0 mps 705 mmHg 29%
    16:00 +34°C° 0 mm 1 mps 705 mmHg 33%
    17:00 +32°C° 0 mm 1 mps 704 mmHg 36%
    18:00 +30°C° 0 mm 1 mps 704 mmHg 39%
    19:00 +29°C° 0 mm 1 mps 705 mmHg 41%
    20:00 +28°C° 0 mm 1 mps 705 mmHg 42%
    21:00 +27°C° 0 mm 2 mps 706 mmHg 44%
    22:00 +27°C° 0 mm 2 mps 706 mmHg 47%
    23:00 +26°C° 0 mm 2 mps 705 mmHg 50%

    24 September, Monday

    Time Temperature Precipitation Wind Pressure Humidity
    00:00 +25°C° 0 mm 2 mps 705 mmHg 53%
    01:00 +25°C° 0 mm 2 mps 705 mmHg 54%
    02:00 +24°C° 0 mm 1 mps 705 mmHg 56%
    03:00 +24°C° 0 mm 1 mps 704 mmHg 58%
    04:00 +24°C° 0 mm 1 mps 705 mmHg 59%
    05:00 +23°C° 0 mm 2 mps 705 mmHg 60%
    06:00 +23°C° 0 mm 2 mps 705 mmHg 60%
    07:00 +25°C° 0 mm 2 mps 706 mmHg 56%
    08:00 +27°C° 0 mm 3 mps 706 mmHg 52%
    09:00 +29°C° 0 mm 3 mps 707 mmHg 48%
    10:00 +31°C° 0 mm 3 mps 707 mmHg 42%
    11:00 +34°C° 0 mm 3 mps 706 mmHg 36%
    12:00 +35°C° 0 mm 2 mps 706 mmHg 29%
    13:00 +36°C° 0 mm 2 mps 706 mmHg 28%
    14:00 +36°C° 0 mm 1 mps 705 mmHg 26%
    15:00 +36°C° 0 mm 1 mps 705 mmHg 25%
    16:00 +34°C° 0 mm 1 mps 705 mmHg 28%
    17:00 +33°C° 0 mm 1 mps 705 mmHg 32%
    18:00 +31°C° 0 mm 1 mps 705 mmHg 36%
    19:00 +30°C° 0 mm 1 mps 705 mmHg 38%
    20:00 +29°C° 0 mm 2 mps 705 mmHg 40%
    21:00 +28°C° 0 mm 2 mps 706 mmHg 42%
    22:00 +27°C° 0 mm 2 mps 705 mmHg 45%
    23:00 +27°C° 0 mm 2 mps 705 mmHg 48%

    25 September, Tuesday

    Time Temperature Precipitation Wind Pressure Humidity
    00:00 +26°C° 0 mm 2 mps 705 mmHg 50%
    01:00 +26°C° 0 mm 2 mps 705 mmHg 52%
    02:00 +25°C° 0 mm 2 mps 704 mmHg 53%
    03:00 +25°C° 0 mm 2 mps 704 mmHg 55%
    04:00 +24°C° 0 mm 2 mps 704 mmHg 56%
    05:00 +24°C° 0 mm 2 mps 704 mmHg 56%
    06:00 +24°C° 0 mm 2 mps 705 mmHg 57%
    07:00 +25°C° 0 mm 2 mps 705 mmHg 55%
    08:00 +27°C° 0 mm 3 mps 706 mmHg 52%
    09:00 +28°C° 0 mm 3 mps 706 mmHg 50%
    10:00 +30°C° 0 mm 3 mps 706 mmHg 45%
    11:00 +32°C° 0 mm 2 mps 706 mmHg 39%
    12:00 +34°C° 0 mm 2 mps 706 mmHg 34%
    13:00 +35°C° 0 mm 2 mps 705 mmHg 31%
    14:00 +35°C° 0 mm 2 mps 704 mmHg 29%
    15:00 +35°C° 0 mm 1 mps 704 mmHg 27%
    16:00 +33°C° 0 mm 1 mps 704 mmHg 30%
    17:00 +32°C° 0 mm 1 mps 704 mmHg 34%
    18:00 +30°C° 0 mm 1 mps 704 mmHg 38%
    19:00 +29°C° 0 mm 1 mps 704 mmHg 40%
    20:00 +29°C° 0 mm 1 mps 704 mmHg 41%
    21:00 +28°C° 0 mm 2 mps 705 mmHg 43%
    22:00 +27°C° 0 mm 2 mps 705 mmHg 45%
    23:00 +27°C° 0 mm 2 mps 704 mmHg 46%

    26 September, Wednesday

    Time Temperature Precipitation Wind Pressure Humidity
    00:00 +26°C° 0 mm 2 mps 704 mmHg 48%
    01:00 +26°C° 0 mm 2 mps 704 mmHg 49%
    02:00 +25°C° 0 mm 2 mps 703 mmHg 49%
    03:00 +25°C° 0 mm 2 mps 703 mmHg 50%
    04:00 +25°C° 0 mm 2 mps 703 mmHg 51%
    05:00 +24°C° 0 mm 2 mps 703 mmHg 52%
    06:00 +24°C° 0 mm 2 mps 704 mmHg 53%
    07:00 +26°C° 0 mm 3 mps 704 mmHg 50%
    08:00 +28°C° 0 mm 3 mps 704 mmHg 47%
    09:00 +30°C° 0 mm 4 mps 705 mmHg 43%
    10:00 +32°C° 0 mm 4 mps 705 mmHg 38%
    11:00 +34°C° 0 mm 4 mps 704 mmHg 33%
    12:00 +36°C° 0 mm 3 mps 704 mmHg 27%
    13:00 +36°C° 0 mm 3 mps 704 mmHg 26%
    14:00 +37°C° 0 mm 3 mps 703 mmHg 25%
    15:00 +37°C° 0 mm 2 mps 702 mmHg 23%
    16:00 +35°C° 0 mm 2 mps 702 mmHg 27%
    17:00 +34°C° 0 mm 2 mps 702 mmHg 31%
    18:00 +31°C° 0 mm 2 mps 702 mmHg 34%
    19:00 +30°C° 0 mm 2 mps 702 mmHg 36%
    20:00 +29°C° 0 mm 2 mps 703 mmHg 37%
    21:00 +28°C° 0 mm 2 mps 703 mmHg 39%
    22:00 +28°C° 0 mm 2 mps 703 mmHg 39%
    23:00 +27°C° 0 mm 2 mps 703 mmHg 40%
    Show more